Hourly Data Report for September 11, 2017

All times are specified in Local Standard Time (LST). Add 1 hour to adjust for Daylight Saving Time where and when it is observed.

BAS CARAQUET
NEW BRUNSWICK

47°48'08.000" N
64°50'00.000" W
5.00 m
8100467
71598
WXS

Download Data

Hourly Data (September 2017)
Hourly Data Report for September 11, 2017
Temp Definition
°C
Dew Point Temp Definition
°C
Rel Hum Definition
%
Wind Dir Definition
10's deg

Wind Spd Definition
km/h
Visibility Definition
km
Stn Press Definition
kPa
Hmdx Definition


Wind Chill Definition


Weather Definition


TIME
00:00 13.7 11.4 87 27 11   101.83     LegendNANA
01:00 14.1 10.8 81 26 12   101.76     LegendNANA
02:00 14.1 10.9 81 26 11   101.71     LegendNANA
03:00 14.1 11.3 84 28 12   101.70     LegendNANA
04:00 14.2 11.6 85 30 11   101.71     LegendNANA
05:00 14.2 11.8 86 33 11   101.74     LegendNANA
06:00 14.2 11.1 82 36 15   101.79     LegendNANA
07:00 14.5 11.2 81 35 15   101.80     LegendNANA
08:00 15.1 10.6 75 34 19   101.82     LegendNANA
09:00 15.7 11.0 73 33 17   101.85     LegendNANA
10:00 16.7 10.4 66 34 13   101.89     LegendNANA
11:00 17.7 10.8 64 36 7   101.90     LegendNANA
12:00 17.8 11.3 66 36 7   101.86     LegendNANA
13:00 17.8 11.2 65 33 7   101.77     LegendNANA
14:00 17.8 10.7 63 33 10   101.72     LegendNANA
15:00 17.8 11.7 68 1 7   101.68     LegendNANA
16:00 17.2 11.5 69 1 5   101.61     LegendNANA
17:00 16.0 10.8 71 3 5   101.58     LegendNANA
18:00 14.7 10.6 77 7 4   101.57     LegendNANA
19:00 11.8 10.0 88   0   101.55     LegendNANA
20:00 10.2 9.3 94 9 1   101.52     LegendNANA
21:00 8.9 8.3 96 0 1   101.50     LegendNANA
22:00 8.5 8.0 97 26 5   101.49     LegendNANA
23:00 9.2 9.0 98 27 4   101.49     LegendNANA

Notes on Data Quality.

Legend

  • E = Estimated
  • M = Missing
  • NA = Not Available
  • ‡ = Partner data that is not subject to review by the National Climate Archives
Date modified: